Regional Weather Roundup
Issued by NWS

Home | Current Version | Previous Version | Graphics & Text | Print | Product List | Glossary On
Versions: 1 2 3 4 5 6 7 8 9 10 11 12 13 14 15 16 17 18 19 20 21 22 23 24 25 26 27 28 29 30 31 32 33 34 35 36 37 38 39 40 41 42 43 44 45 46 47 48 49 50
000
ASUS43 KIND 270909
RWRIN

WEATHER ROUNDUP FOR INDIANA
NATIONAL WEATHER SERVICE INDIANAPOLIS IN
500 AM EDT THU APR 27 2017

NOTE: "FAIR" INDICATES FEW OR NO CLOUDS BELOW 12,000 FEET WITH NO
SIGNIFICANT WEATHER AND/OR OBSTRUCTIONS TO VISIBILITY.

* - STATION DOES NOT REPORT WEATHER SUCH AS PRECIPITATION OR FOG.

+ - STATION NOT QUALITY CONTROLLED BY THE NATIONAL WEATHER SERVICE.
    USE DATA WITH CAUTION...ESPECIALLY DEWPOINT AND RELATIVE
    HUMIDITY OBSERVATIONS.

INZ001>003-010>013-019-020-271000-
NORTHWEST INDIANA

CITY           SKY/WX    TMP DP  RH WIND       PRES   REMARKS
GARY /AIRPORT/ LGT RAIN  61  57  86 S10G18    29.35F
KNOX *+        CLOUDY    59  43  55 S14       29.40F
LA PORTE +     CLOUDY    60  57  89 S13G18    29.39F
MICHIGAN CITY+ DRIZZLE   59  59 100 S8        29.37F
MONTICELLO +   CLOUDY    59  56  87 S5        29.41F
RENSSELAER +   LGT RAIN  59  55  88 S13G18    29.38F
VALPARAISO     CLOUDY    61  58  90 S14       29.39F

$$

LMZ046-743>745-271000-
SOUTHERN LAKE MICHIGAN

STATION/POSITION TIME  TEMP    WIND        PRES    WAVE
                       AIR SEA DIR/SP/G            HT
                 (UTC) (F)     (DEG/KT/KT) (MB)    (FT)
BURNS HARBOR     0840   62     170/ 11/ 23  994.2F
MICHIGAN CITY    0840   61     150/ 13/ 18   N/A
5NW MICH CITY    0900   58 49                N/A     2

$$

INZ004-005-014>016-021>024-271000-
NORTH CENTRAL INDIANA

CITY           SKY/WX    TMP DP  RH WIND       PRES   REMARKS
GOSHEN         CLOUDY    61  57  87 SW12      29.44F
LOGANSPORT +   LGT RAIN  59  55  88 S8        29.45F
PERU/GRISSOM   CLOUDY    60  60 100 S12       29.43F
ROCHESTER +    CLOUDY    63  57  82 S9        29.44F
SOUTH BEND     CLOUDY    60  58  92 S12       29.41F
WARSAW +       CLOUDY    61  55  82 SW5       29.45F

$$

INZ006>009-017-018-025>027-271000-
NORTHEAST INDIANA

CITY           SKY/WX    TMP DP  RH WIND       PRES   REMARKS
ANGOLA *+      MOCLDY    66  57  72 S12       29.44S
AUBURN +       CLOUDY    66  54  63 SW14G25   29.49R
FORT WAYNE     CLOUDY    63  56  78 SW15      29.49R
HUNTINGTON +   CLOUDY    61  58  91 SW6       29.49S
KENDALLVILLE + CLOUDY    65  57  74 SW18G30   29.47R

$$

INZ028-029-035-036-043>045-051>053-271000-
WEST CENTRAL INDIANA

CITY           SKY/WX    TMP DP  RH WIND       PRES   REMARKS
CRAWFORDSVL +  CLOUDY    57  57 100 S16       29.43S
GREENCASTLE +  CLOUDY    59  54  82 S17G23    29.46R
LAFAYETTE      CLOUDY    58  55  90 SW6       29.40F
TERRE HAUTE    CLOUDY    60  55  83 S15G24    29.44R

$$

INZ030>032-037>040-046>048-054>057-064-065-271000-
CENTRAL INDIANA

CITY           SKY/WX    TMP DP  RH WIND       PRES   REMARKS
CP ATTERBURY + CLOUDY    59  55  88 SE5       29.52F
FISHERS *+     CLOUDY    57  57 100 SE9       29.49F
FRANKFORT +    RAIN      61  57  87 S7        29.44F
GREENWOOD *+   CLOUDY    60  56  85 SE9       29.50F
INDIANAPOLIS   LGT RAIN  60  57  89 S13       29.48F
-EAGLE CREEK   CLOUDY    60  56  86 S8        29.47F
KOKOMO +       CLOUDY    60  56  86 S10       29.47F
MARION +       CLOUDY    59  55  88 S8        29.51S
MT COMFORT *+  CLOUDY    59  55  88 S8        29.51F
SHELBYVILLE    LGT RAIN  63  55  75 S9        29.52F
ZIONSVILLE +   CLOUDY    58  56  92 SE10      29.47F

$$

INZ033-034-041-042-049-050-058-059-271000-
EAST CENTRAL INDIANA

CITY           SKY/WX    TMP DP  RH WIND       PRES   REMARKS
MUNCIE         CLOUDY    64  53  67 SW10      29.53S
RICHMOND +     CLOUDY    63  54  72 W13       29.59R

$$

INZ060-061-067>069-081>083-085>088-271000-
SOUTHWEST INDIANA

CITY           SKY/WX    TMP DP  RH WIND       PRES   REMARKS
EVANSVILLE     MOCLDY    62  57  83 S10       29.52R
HUNTINGBURG *+ CLOUDY    60  57  89 S12       29.53S
WASHINGTON +   CLOUDY    60  56  87 S17       29.49S

$$

INZ062-063-066-070>080-084-089>092-271000-
SOUTH CENTRAL AND SOUTHEAST INDIANA

CITY           SKY/WX    TMP DP  RH WIND       PRES   REMARKS
BEDFORD +      CLOUDY    59  55  88 SE6       29.51R
BLOOMINGTON    CLOUDY    59  55  87 S10       29.49F
MADISON *+     CLOUDY    63  52  67 CALM      29.55F
NORTH VERNON + LGT RAIN  59  54  82 SE3       29.52F
SEYMOUR +      CLOUDY    61  55  82 SW3       29.53F

$$





USA.gov is the U.S. government's official web portal to all federal, state and local government web resources and services.